P/2010 H2 (Vales)
Epoch 2010 Mar. 25.0 TT = JDT 2455280.5
T 2010 Mar. 6.64387 TT                                  Nakano
q   3.1079666            (2000.0)            P               Q
n   0.13047886     Peri.  129.60588     -0.94932319     +0.22256935
a   3.8498394      Node    64.29624     -0.30536151     -0.82033710
e   0.1927023      Incl.   14.25811     +0.07443000     -0.52679211
P   7.55 (+/- 0.04 day)
From 1025 observations 2010 Apr. 16-May 12, mean residual 0".36.
Residuals in seconds of arc
2010/                     100418 B96  0.2+  0.0     100425 379  0.5-  0.1-
100416 106  0.1-  0.1-    100418 213  0.0   0.1+    100425 379  0.3+  0.0
100416 106  0.1-  0.1-    100418 J01  0.2-  0.1+    100425 379  1.0-  0.9+
100416 106  0.1-  0.2-    100418 510  0.2+  0.0     100425 900  0.2-  0.3-
100416 106  0.1-  0.1-    100418 204  0.1+  0.1+    100425 900  0.2-  0.4-
100416 H01  0.2-  0.1-    100418 510  0.1-  0.1-    100425 379  0.1-  0.1-
100416 H01  0.2-  0.1-    100418 510  0.2-  0.2-    100425 379  0.3+  1.5+
100416 H01  0.3-  0.1+    100418 J01  0.1-  0.0     100425 379  0.3-  0.4+
100416 H01  0.3-  0.0     100418 J01  0.1-  0.0     100425 J51  0.1+  0.4-
100416 658  0.4-  0.3+    100419 C10  0.1+  0.1+    100425 J51  0.1-  0.2-
100416 658  0.9-  0.3+    100419 C10  0.1+  0.1+    100425 213  0.3-  0.1-
100416 658  0.9+  0.3+    100419 C10  0.2+  0.0     100425 213  0.1+  0.3-
100416 850  0.1+  0.3+    100419 C10  0.2+  0.2+    100425 J51  0.1-  0.4-
100416 850  0.1+  0.3-    100419 C10  0.2+  0.2+    100425 213  0.3+  0.3-
100416 850  0.1-  0.2+    100419 C10  0.2+  0.1+    100426 945  0.4+  0.1+
100416 850  0.4-  0.2-    100419 160  0.0   0.3-    100426 945  0.3+  0.1-
100416 H01  0.2-  0.2+    100419 C10  0.1+  0.2+    100426 945  0.7-  0.6-
100416 850  0.0   0.2-    100419 160  0.3+  0.1-    100426 945  1.2-  0.7-
100416 850  0.1-  0.0     100419 160  0.0   0.0     100426 945  0.2+  0.5-
100416 H01  0.7-  0.1-    100419 B82  0.0   0.1+    100426 H10  0.0   0.4-
100416 E94  0.6-  0.0     100419 C10  0.2+  0.1+    100426 585  0.6+  0.3-
100416 850  0.2-  0.4-    100419 B82  0.0   0.1+    100426 585  0.1-  0.3-
100416 E94  0.2+  0.3+    100419 B82  0.0   0.1+    100426 585  0.1+  0.3+
100416 H01  0.1-  0.2+    100419 B82  0.0   0.1+    100426 458  0.3-  0.1+
100416 850  0.2+  0.1-    100419 B82  0.1+  0.1+    100426 J01  0.1-  0.2+
100416 850  0.2-  0.0     100419 B82  0.1-  0.1+    100426 458  0.1+  0.0
100416 E94  0.4-  0.6+    100419 850  0.9+  0.2-    100426 J01  0.2+  0.2+
100416 H01  0.3-  0.1-    100419 850  0.1+  0.0     100426 J01  0.2-  0.1+
100416 H06  0.2-  0.1-    100419 H36  0.3-  0.1-    100427 213  0.2+  0.2+
100416 E94  0.2+  0.4+    100419 H36  0.1-  0.1-    100427 213  0.0   0.4+
100416 H06  0.2-  0.1-    100419 H36  0.5+  0.1-    100427 213  0.3+  0.5+
100416 H10  0.1-  0.2-    100419 H10  0.0   0.3-    100427 J38  0.5+  0.4+
100416 E94  0.0   1.5+    100419 H10  0.0   0.0     100427 J38  0.1-  1.1+
100416 H10  0.1-  0.0     100419 H06  0.2-  0.1-    100427 J38  0.1+  1.3+
100416 H06  0.2-  0.2-    100419 H10  0.0   0.1-    100428 H47  0.1+  0.1-
100416 H10  0.1+  0.2+    100419 H06  0.3-  0.1-    100428 H47  0.2-  1.0-
100416 H10  0.2+  0.1+    100419 H10  0.4+  0.3+    100428 H47  0.6+  0.4-
100416 474  0.3+  0.2+    100419 D95  0.5-  0.1+    100428 D96  0.3-  0.2+
100416 474  0.3+  0.1+    100419 D95  0.4-  0.0     100428 D96  0.1+  0.1+
100416 474  0.5+  0.1+    100419 D95  0.4-  0.3-    100428 D96  0.0   0.2+
100416 D96  0.6-  0.5+    100419 D95  0.4-  0.1-    100428 D96  0.2-  0.2-
100416 D96  0.2+  0.0     100419 415  0.1-  0.1-    100428 D96  0.1+  0.1-
100416 E10  0.1-  0.2+    100419 415  0.0   0.1-    100428 C12  0.4+  0.4+
100416 E10  0.1-  0.2+    100419 D93  0.1+  0.1+    100428 C12  1.0+  0.3+
100416 E10  0.3-  0.5+    100419 D93  0.0   0.4+    100428 C12  1.0-  0.4+
100416 D96  0.2-  0.5+    100419 D93  0.1+  0.1+    100428 213  0.6+  0.1+
100416 E10  0.1+  0.2+    100419 D93  0.3+  0.2+    100428 213  0.3+  0.1+
100416 E10  0.2+  0.1-    100419 D93  0.3+  0.2+    100428 213  0.4+  0.3+
100416 D96  0.2-  0.5+    100419 D96  0.2-  0.1-    100428 B75  1.6+  0.3-
100416 D90  0.1+  0.1-    100419 D96  0.0   0.2-    100428 B75  0.3-  0.9-
100416 D90  0.1+  0.1-    100419 D96  0.1-  0.1+    100428 B75  0.3-  1.1+
100416 D90  0.0   0.2-    100419 D96  0.1-  0.1-    100429 D95  0.4+  0.2+
100416 D90  0.2+  0.1-    100419 A17  0.3-  0.0     100429 D95  0.0   0.7-
100416 D90  0.2+  0.1-    100419 473  0.1-  0.2+    100429 D95  0.1+  0.9-
100416 D90  0.0   0.1-    100419 473  0.1-  0.1+    100429 379  0.2+  0.6+
100416 D90  0.1+  0.1-    100419 A17  0.3-  0.1-    100429 379  0.4+  0.8+
100416 D90  0.0   0.1-    100419 A77  0.0   0.1-    100429 379  0.3+  0.6+
100416 D90  0.0   0.4-    100419 A77  0.1-  0.2-    100429 349  0.0   0.0
100416 D90  0.1+  0.1-    100419 A77 (2.0+  3.6-)   100429 349  0.2+  0.1-
100416 D90  0.1+  0.1-    100419 B49  0.3-  0.2-    100429 046  0.2+  0.1+
100416 D90  0.2+  0.1-    100419 235  0.4+  0.4+    100429 046  0.3+  0.1-
100416 D96  0.1-  0.7-    100419 B49  0.0   0.3-    100429 046  0.2+  0.1+
100416 D90  0.1-  0.2-    100419 B49  0.3-  0.1+    100429 046  0.3+  0.0
100416 D96  0.0   0.5-    100419 473  0.1-  0.2-    100429 046  0.1-  0.0
100416 D90  0.2-  0.2-    100419 C23  0.3-  0.5+    100429 046  0.0   0.0
100416 D96  0.2-  0.2-    100419 473  0.2-  0.1-    100429 J07  0.3+  0.1+
100416 300  0.1-  0.2-    100419 114 (2.0-  0.0 )   100429 J07  0.3+  0.0
100416 D96  0.1+  0.3+    100419 114  0.3-  0.3-    100429 J08  0.3+  1.2+
100416 300  0.0   0.2-    100419 114  0.1-  0.3-    100429 J07  0.3+  0.2+
100416 300  0.0   0.2-    100419 213  0.1+  0.0     100429 B33  0.0   0.1-
100416 114  0.3-  0.1-    100419 C23  1.3-  0.4+    100429 B33  0.2+  0.1-
100416 D96  0.0   0.4+    100419 114  0.3-  0.3-    100429 160  0.5+  0.1-
100416 D21  0.3+  0.6+    100419 213  0.4-  0.2+    100429 160  0.5+  0.0
100416 114  0.0   0.1-    100419 114  0.3-  0.3-    100429 160  0.4+  0.3+
100416 114  0.1-  0.1-    100419 213  0.0   0.0     100430 D93  0.1+  1.4+
100416 D96  0.0   0.6+    100419 C23  0.4+  0.2+    100430 D93  0.0   0.9+
100416 300  0.0   0.3-    100419 204  0.1-  0.0     100430 D93  0.1-  0.1+
100416 300  0.0   0.1-    100419 587  0.2+  0.1+    100430 C23  0.3+  0.8+
100416 300  0.0   0.1-    100419 B75  0.1+  0.0     100430 C23  0.1+  1.0+
100416 D21  0.2+  0.5+    100419 B75  0.2-  0.0     100430 A79  0.6+  0.8+
100416 D96  0.2-  0.3+    100419 B75  0.0   0.1+    100430 A79  0.6+  0.7+
100416 D96  0.3-  0.2+    100419 B66  0.3+  0.2+    100430 C23 (3.2-  0.0 )
100416 D21  0.1+  0.6+    100419 587  0.2+  0.1-    100430 A79  0.5+  0.5+
100416 188  0.3-  0.0     100419 106  0.1+  0.3-    100430 160  0.4+  0.1+
100416 B18  0.1-  0.0     100419 204  0.2-  0.1+    100430 160  0.5+  0.2+
100416 B18  0.1-  0.1-    100419 587  0.0   0.0     100430 160  0.5+  0.4+
100416 B18  0.1-  0.1-    100419 106  0.0   0.1+    100501 379  0.4+  0.2+
100416 611  0.1-  0.3+    100419 106  0.3-  0.0     100501 379  0.2+  0.6+
100416 611  0.1+  0.1-    100419 106  0.5-  0.2-    100501 379  0.1+  0.8+
100416 213  0.1+  0.2-    100420 204  0.1-  0.0     100501 379  0.3-  0.2+
100416 213  0.1+  0.0     100420 B66  0.4+  0.1+    100501 379  0.3-  0.1+
100416 213  0.2-  0.1+    100420 510  0.1+  0.3-    100501 367  0.0   0.1+
100416 611  0.1+  0.2+    100420 510  0.0   0.0     100501 379  0.3+  0.1+
100416 213  0.1+  0.1+    100420 510  0.0   0.0     100501 367  0.0   0.1-
100416 B96  0.1+  0.2+    100420 B82  0.1-  0.1+    100501 367  0.2+  0.1-
100416 213  0.0   0.0     100420 B82  0.2+  0.1+    100501 372  0.2+  0.2+
100416 213  0.5+  0.1-    100420 B82  0.2+  0.1+    100501 372  0.4+  0.1+
100416 213  0.6+  0.4+    100420 H75  0.0   0.2-    100501 D93  0.8+  0.5+
100416 106  0.1-  0.2-    100420 H75  0.1-  0.2-    100501 D93  0.3+  0.5+
100416 A77  0.4+  0.0     100420 H75  0.0   0.0     100501 D93  0.4+  1.2+
100416 106  0.1-  0.2-    100420 H45  0.1-  0.1-    100501 461  0.3+  0.3+
100416 B96  0.1+  0.0     100420 H45  0.2-  0.0     100501 461  0.3+  0.4+
100416 J95  0.0   0.2+    100420 H45  0.2-  0.0     100501 461  0.1+  0.3+
100416 A77  0.1+  0.0     100420 H45  0.1-  0.1-    100501 J36  0.2+  0.1+
100416 J95  0.4+  0.0     100420 H45  0.1-  0.1-    100501 J36  0.2+  0.2+
100416 A81  0.0   0.0     100420 H45  0.0   0.1-    100501 J36  0.2+  0.3+
100416 106  0.0   0.2-    100420 H45  0.1-  0.1-    100501 J24  0.5+  0.1+
100416 J95  0.2+  0.0     100420 H45  0.0   0.0     100501 J24  0.2-  0.6+
100416 A77  0.2+  0.0     100420 G96  0.2+  0.7-    100501 J24  0.5+  0.5+
100416 A81  0.2+  0.0     100420 G96  0.3+  0.8-    100502 I99  0.3-  1.1+
100416 046  0.2+  0.0     100420 G96  0.3+  0.8-    100502 I99  0.8+  0.0
100416 046  0.1+  0.0     100420 G96  0.4+  0.7-    100502 I99 (2.7+  0.3+)
100416 B96  0.0   0.1-    100420 H06  0.7+  0.2+    100502 H06  0.3+  0.1-
100416 046  0.2+  0.1+    100420 H06  0.1-  0.4+    100502 H06  0.0   0.2-
100416 046  0.0   0.0     100420 H06  0.1+  0.3+    100502 H06  0.3+  0.2-
100416 046  0.1+  0.2-    100420 H06  0.4+  0.2+    100502 H06  0.3+  0.1-
100416 A81  0.1+  0.1+    100420 H06  0.6+  0.1-    100502 H06  0.1+  0.0
100416 046  0.3+  0.0     100420 H06  0.2-  0.1-    100502 D95  0.8-  1.3-
100416 A81  0.2+  0.1+    100420 C06  1.1-  0.2-    100502 D88  0.0   0.3-
100416 A81  0.1+  0.1+    100420 D96  0.7-  0.3-    100502 379  0.7-  0.2-
100416 A81  0.1+  0.1+    100420 D96  0.5-  0.0     100502 D95  0.2+  1.4-
100416 C12  0.1+  0.1-    100420 D96  0.6-  0.2-    100502 D88  0.2-  0.1+
100416 470  0.1-  0.1-    100420 D96  0.6-  0.0     100502 D81  0.6-  0.4+
100416 470  0.0   0.0     100420 D96  0.5-  0.3-    100502 D88  0.2-  0.2+
100416 611  0.1+  0.1+    100420 D96  0.4-  0.1-    100502 D81  0.8-  0.2+
100416 470  0.3-  0.1-    100420 D96  0.6-  0.0     100502 D81  0.7-  0.0
